Wind_Speed
31 32 33 34 35 35 35 34 34 34 34 34 35 35 36 36 35 35 38 40 42 42 39 41 45 42 36 36 38 41 42 41 40 40 40 40 41 41 42 43 43 43 44 45 45 44 43 43 45 47 47 47 48 49 51 51 53 54 56 59 60 59 59 59 58 57 57 57 58 59 61 64 67 70 73 76 79 81 81 81 81 79 78 77 75 73
32 33 34 35 36 37 37 36 36 36 36 36 37 38 38 39 39 37 39 41 42 44 42 43 47 45 40 38 38 40 41 40 40 41 41 41 41 42 43 43 43 44 44 44 45 44 44 45 47 47 47 47 49 51 51 52 53 55 58 59 59 59 59 59 58 58 58 58 59 61 64 66 69 72 74 77 79 81 81 82 81 80 78 76 73 72
33 34 35 36 37 38 38 38 38 38 38 38 38 40 40 41 43 41 41 43 43 45 44 45 49 48 43 39 38 40 40 40 41 41 41 41 41 42 42 43 43 43 44 45 45 45 45 46 46 46 47 48 50 51 52 52 53 56 59 59 59 60 60 59 59 59 59 60 62 64 67 69 72 74 77 79 81 82 82 82 81 79 77 74 72 72
34 34 36 37 38 39 40 40 41 40 40 39 39 42 42 43 45 45 44 45 45 46 46 47 50 50 46 41 38 40 40 40 42 42 41 41 41 42 42 42 43 43 44 46 46 45 45 45 46 47 48 50 51 51 52 53 55 58 59 59 59 60 60 60 60 60 60 61 64 67 70 72 74 76 79 81 82 83 83 81 80 77 75 72 72 73
34 36 37 38 38 39 41 42 43 43 42 40 40 43 44 45 46 47 48 48 48 47 47 49 52 53 49 43 39 41 41 41 43 43 42 42 41 42 43 43 43 44 45 47 46 45 45 46 47 48 50 51 51 52 52 54 57 58 58 59 60 60 60 61 61 61 62 64 67 69 72 75 77 79 82 83 83 82 81 80 77 74 72 72 72 74
35 37 38 39 39 40 42 43 44 46 45 42 41 43 46 46 47 48 49 51 52 51 49 48 53 56 53 46 42 43 43 43 45 43 41 42 42 43 44 44 44 45 46 46 45 45 46 48 49 50 51 51 52 52 54 57 58 58 58 59 60 60 61 62 62 62 64 67 69 71 73 75 77 79 82 84 83 82 81 80 77 74 73 72 73 75
36 38 39 39 41 41 43 44 45 47 47 44 42 44 47 48 48 49 49 52 54 55 52 48 52 59 57 49 45 44 44 45 46 43 42 42 43 44 45 45 46 47 47 46 45 46 48 50 50 50 51 52 52 53 56 58 58 58 59 60 60 60 62 63 63 65 67 69 71 73 75 77 78 80 81 84 84 84 82 81 78 75 74 74 75 76
38 39 40 40 41 42 43 45 47 48 48 47 45 46 48 48 50 50 50 52 54 57 55 48 51 60 59 53 49 46 45 46 45 43 42 43 45 46 46 46 47 48 48 46 47 49 50 50 50 51 52 52 53 55 57 59 58 59 60 60 59 61 63 64 65 67 70 71 73 75 77 78 80 82 83 85 85 85 84 81 78 75 74 75 77 78
40 41 41 41 42 43 44 46 48 48 49 48 48 48 49 50 51 51 52 53 55 59 56 49 52 60 60 56 51 47 47 48 45 43 43 43 46 48 48 48 49 49 48 48 49 49 49 50 51 52 53 53 55 57 58 59 59 60 60 59 59 61 64 66 68 70 72 73 75 77 78 80 82 84 85 87 87 85 84 81 79 76 76 76 78 79
43 43 42 42 43 44 45 47 48 49 50 50 50 50 51 52 53 53 54 54 56 59 56 51 54 61 61 56 50 47 49 50 46 43 44 46 48 49 50 50 50 49 48 48 48 48 50 51 52 53 54 55 57 58 60 60 61 60 59 59 60 63 66 68 70 71 73 75 76 78 80 81 83 85 87 88 87 85 84 81 79 77 77 78 78 79
44 44 44 43 44 45 47 49 49 50 51 51 51 52 52 54 55 55 56 56 58 59 56 55 57 62 63 57 50 50 52 50 46 45 47 48 49 51 52 52 51 49 47 46 48 50 52 53 53 55 56 57 58 59 60 61 61 60 59 59 61 64 68 70 71 73 74 76 78 79 81 83 85 87 88 89 87 85 83 81 79 78 78 78 78 80
47 46 45 44 45 46 48 50 50 51 52 52 53 53 53 56 56 57 58 57 59 60 58 59 60 62 64 58 54 55 54 51 50 50 50 48 49 52 54 54 52 50 47 48 51 53 54 54 55 57 58 58 59 59 60 61 60 59 59 60 63 66 69 71 72 74 75 77 79 81 83 85 87 89 89 89 87 85 83 81 80 79 78 78 78 80
48 47 47 46 45 47 49 51 51 52 53 53 53 53 55 58 58 59 60 59 60 60 60 62 63 64 63 59 57 58 56 55 54 52 50 48 52 55 56 56 54 51 50 51 54 54 54 55 57 58 59 59 58 59 60 60 59 58 60 62 65 68 70 72 73 74 76 78 80 82 85 87 89 90 90 89 87 85 83 82 80 79 78 78 79 80
50 49 48 47 47 49 50 51 53 53 54 54 54 55 57 58 58 61 62 62 62 62 63 65 65 64 62 60 60 60 58 58 56 53 52 52 55 57 57 57 56 53 53 54 55 55 55 57 58 59 59 57 57 59 60 60 59 59 61 64 67 69 72 73 74 75 77 79 81 84 86 88 90 90 90 89 86 84 83 82 80 79 79 80 81 82
53 52 50 49 49 51 51 52 54 55 55 55 55 57 58 57 59 62 62 63 64 64 65 67 67 65 62 62 62 61 59 58 56 54 55 55 57 57 58 58 56 54 55 55 55 55 57 59 59 59 57 56 58 59 59 59 59 60 63 65 68 71 73 73 74 76 78 80 83 85 87 89 90 90 89 88 86 84 83 81 81 80 81 81 83 84
54 55 52 52 53 54 54 54 55 56 56 56 57 58 58 58 61 62 62 63 65 66 66 66 67 65 63 63 62 60 59 58 58 57 57 58 57 56 58 58 58 56 56 56 56 57 59 60 59 57 56 57 58 59 59 59 59 62 64 67 69 72 73 74 75 76 79 81 84 86 88 89 89 89 88 86 85 84 83 82 81 81 82 83 84 86
54 55 54 56 57 57 58 58 58 57 57 57 59 59 59 61 62 62 63 64 65 68 67 66 67 66 64 62 58 58 60 60 60 59 59 59 57 56 58 60 59 58 57 57 58 59 61 60 58 56 56 58 58 58 58 59 61 63 66 68 70 73 73 74 75 77 79 82 84 86 88 89 89 88 88 86 85 84 83 83 83 82 83 84 86 87
54 55 55 58 60 60 61 61 61 60 58 58 59 60 61 63 62 62 64 65 67 70 69 66 67 67 64 60 58 60 63 62 61 60 58 57 55 56 61 62 61 60 59 59 59 61 61 59 57 56 57 58 58 58 58 60 62 65 67 69 71 73 73 74 76 77 80 82 84 86 88 88 89 88 87 86 85 84 84 83 83 84 85 86 87 88
55 55 57 59 61 62 63 64 64 61 60 61 61 63 63 63 63 64 65 67 69 73 73 69 68 66 63 61 61 62 63 62 60 58 56 55 56 59 63 64 62 61 60 60 60 61 60 58 56 56 58 58 58 58 59 61 64 67 68 70 72 73 73 74 76 77 80 83 84 86 87 88 88 87 87 86 85 85 85 84 84 85 86 87 88 89
56 56 58 60 62 64 65 64 62 61 62 64 65 64 63 63 65 65 66 69 71 73 74 73 71 65 59 61 62 61 62 60 59 58 57 56 58 62 65 64 63 62 62 61 61 61 59 57 56 57 58 58 58 59 60 63 66 68 69 71 72 73 74 74 76 78 80 83 84 86 87 87 87 87 87 86 86 86 85 85 86 87 88 89 89 90
57 58 61 62 63 65 63 61 61 62 64 66 65 64 63 63 66 68 69 70 71 73 76 77 77 67 56 58 61 61 61 60 59 59 58 57 60 64 66 65 64 64 63 61 61 60 58 57 57 57 57 58 58 60 62 65 67 69 70 72 72 73 74 75 76 78 80 82 84 85 86 86 86 86 86 87 86 86 86 86 87 89 89 90 90 90
61 62 63 63 63 63 62 62 64 65 66 67 65 64 63 63 65 69 72 71 71 74 77 80 82 70 57 58 62 62 63 61 60 60 58 59 63 66 67 66 66 65 63 61 62 60 58 57 57 57 57 58 59 61 64 67 68 69 70 72 73 73 74 74 75 78 80 81 83 84 85 85 86 86 86 86 86 85 86 87 88 90 91 91 91 90
63 63 65 66 65 65 65 66 67 69 69 68 66 64 63 63 66 69 72 73 72 75 78 81 83 72 60 60 63 64 65 63 62 61 59 61 65 66 68 68 67 66 63 63 62 59 57 57 56 57 57 58 60 63 66 68 68 70 71 72 73 74 74 75 76 77 79 81 83 84 85 85 85 86 86 86 86 85 86 88 89 91 92 91 91 91
62 63 66 67 67 68 69 69 71 72 70 68 66 65 65 66 68 70 74 74 75 78 79 80 81 73 64 64 67 67 68 66 63 62 61 63 66 68 69 68 67 66 64 63 61 57 56 56 56 57 58 59 63 65 67 68 68 70 72 72 73 74 74 75 76 77 79 81 83 84 84 85 85 85 85 86 85 86 87 89 90 92 92 92 91 91
63 65 67 69 71 72 72 72 72 72 70 69 68 68 68 68 69 72 75 75 78 81 79 79 82 76 68 68 71 70 69 67 63 63 63 65 67 69 69 68 66 65 64 61 58 56 56 56 56 57 58 61 65 66 67 67 69 70 72 73 73 73 74 75 76 78 80 81 83 84 85 85 85 85 85 86 86 86 88 90 91 92 92 92 91 92
66 68 70 72 75 76 74 73 73 72 71 72 72 70 70 70 71 74 76 77 82 82 79 81 85 81 72 70 70 69 68 65 61 61 63 65 67 69 67 66 64 63 61 58 56 55 55 56 57 58 60 63 65 66 66 68 69 71 72 73 73 73 74 75 76 78 80 82 83 84 84 85 85 85 86 86 86 88 89 91 92 92 92 92 92 93
70 72 74 76 78 78 76 74 74 74 74 75 74 73 73 73 73 76 80 82 83 82 82 83 84 83 75 67 65 66 64 61 60 61 63 66 67 67 65 64 63 61 58 56 55 55 55 57 58 59 61 64 65 65 67 68 70 71 72 73 73 73 74 75 76 78 80 82 83 84 84 84 85 86 86 86 87 88 90 92 93 92 92 92 93 95
74 77 78 79 79 79 77 75 76 77 76 76 76 75 75 75 76 80 84 84 82 84 87 82 79 82 76 62 60 63 60 59 61 62 65 67 66 64 63 62 60 57 56 55 54 55 57 58 58 60 62 64 64 66 67 69 70 71 72 73 73 73 74 75 77 79 81 82 83 84 84 84 85 86 86 87 88 89 91 92 93 92 92 93 95 97
80 81 79 79 81 79 76 75 76 78 77 77 76 74 75 77 79 81 83 82 80 84 85 77 72 76 71 60 59 59 57 60 64 65 66 66 64 63 61 58 56 55 55 54 54 56 58 58 59 61 63 63 64 67 68 70 71 71 72 72 73 74 74 75 77 79 81 83 83 83 84 84 85 86 87 88 89 90 92 92 93 93 93 95 97 98
80 76 70 73 77 73 68 69 72 75 77 76 74 70 72 76 78 77 76 75 74 77 76 71 70 70 63 58 58 57 59 64 65 64 65 64 63 62 58 55 55 55 54 54 56 57 58 58 60 62 63 64 66 68 69 70 71 71 72 72 73 74 75 76 78 79 81 83 83 83 84 84 85 86 88 89 89 91 92 92 93 93 94 97 98 98
71 69 65 68 71 67 62 64 69 72 74 74 71 68 70 72 70 67 65 65 65 68 68 67 70 68 59 55 57 58 59 62 62 62 63 62 61 59 55 54 55 54 54 55 56 57 58 59 61 62 64 66 67 68 70 70 71 71 71 72 73 74 75 77 78 80 82 82 83 83 83 84 85 86 88 89 90 91 92 92 93 94 96 98 98 95
69 69 67 67 70 67 63 65 69 70 70 72 71 68 64 60 58 55 56 58 61 64 67 68 70 67 58 54 55 56 57 59 60 60 60 59 57 55 53 53 54 53 54 55 56 57 59 60 62 64 66 67 68 69 69 70 70 70 70 71 73 74 76 77 79 80 82 82 82 83 83 84 85 87 89 90 91 91 92 92 94 95 98 99 96 89
70 70 69 68 72 71 67 68 69 67 69 73 70 62 55 53 54 54 55 57 61 64 67 68 68 64 59 55 56 57 57 59 59 58 57 56 54 52 52 53 53 53 54 56 57 58 60 62 64 66 67 67 68 69 69 69 70 69 70 71 73 74 76 78 79 80 81 82 82 82 82 83 85 87 89 90 91 91 92 93 94 97 99 97 91 82
69 70 69 69 71 70 68 67 67 67 71 71 64 57 56 58 57 56 57 58 60 62 64 66 65 61 58 56 56 57 59 59 59 57 56 54 51 51 52 53 53 53 54 56 57 59 62 64 65 66 67 68 69 69 68 69 69 69 69 71 73 75 76 77 79 80 81 81 81 81 82 83 85 87 89 90 91 91 92 94 95 97 98 93 85 73
67 67 68 68 68 68 66 65 68 72 70 65 59 59 61 59 56 56 59 58 56 58 60 63 64 61 58 57 57 59 60 60 58 56 54 52 51 51 52 52 52 54 55 57 59 61 64 66 66 66 67 68 68 68 68 68 68 69 70 71 73 75 76 77 78 79 80 80 81 81 82 83 86 88 89 90 91 91 93 94 96 97 95 88 77 63
63 64 66 66 66 68 68 68 71 72 65 59 57 58 56 53 52 56 58 56 55 56 58 61 63 61 59 58 58 59 60 58 56 55 52 51 51 52 52 51 52 54 56 58 61 64 66 66 66 66 66 67 68 67 67 67 67 69 70 72 74 75 76 77 78 79 80 80 80 81 82 84 86 88 89 89 90 91 93 94 96 96 91 81 69 56
61 64 66 67 69 69 69 70 70 68 64 57 51 49 47 48 51 54 57 57 55 54 54 58 61 60 58 58 58 58 57 56 56 55 52 52 53 52 51 52 53 55 57 60 63 65 66 65 65 65 66 67 67 66 66 67 67 69 71 72 74 75 75 76 77 78 78 79 80 81 83 85 86 87 88 89 90 91 93 95 95 92 85 74 61 51
62 64 66 69 70 66 67 69 67 66 64 56 50 48 48 50 53 54 58 60 55 50 51 55 56 56 55 55 56 56 56 57 57 55 53 54 54 52 51 53 54 57 60 62 63 63 64 64 64 65 65 66 66 66 66 66 67 69 71 72 73 74 75 75 76 77 77 78 80 81 83 85 86 87 88 89 90 92 93 94 93 88 78 66 54 49
62 64 64 67 67 65 65 67 65 66 65 58 54 54 53 54 55 54 59 62 55 49 53 55 53 52 51 50 51 53 55 56 56 54 54 54 52 51 52 54 57 60 62 63 63 62 62 63 63 64 65 65 66 66 66 66 68 70 71 72 73 73 74 74 75 75 76 77 79 81 83 85 86 87 88 89 91 92 93 93 90 82 71 58 50 50
62 63 63 66 67 65 66 68 70 72 69 63 61 59 56 55 55 55 61 61 53 50 54 54 51 50 48 47 49 50 52 53 52 51 51 50 50 52 54 57 60 63 64 64 63 63 62 63 63 64 65 65 65 66 66 67 68 70 71 71 72 72 73 73 74 74 76 77 79 81 83 85 85 87 88 89 91 92 92 91 86 76 64 53 49 51
62 62 64 66 67 67 68 72 75 75 70 65 63 58 53 54 57 59 61 57 51 53 55 52 51 50 48 48 49 49 50 50 47 46 46 48 52 54 57 60 64 66 66 65 65 64 64 63 63 64 65 65 65 65 66 67 68 70 70 70 71 72 72 72 73 74 75 77 79 81 83 84 85 86 88 89 90 90 90 87 80 71 59 49 48 52
61 62 65 67 69 70 70 71 74 75 69 62 59 55 53 56 59 59 58 55 55 57 54 50 49 48 48 49 49 48 49 48 45 46 49 52 55 57 60 64 67 68 68 67 66 65 64 63 64 65 65 65 65 65 66 67 68 69 69 69 70 70 71 71 72 73 75 77 79 81 82 83 85 86 87 89 89 88 86 82 74 65 55 48 48 53
60 61 64 66 68 70 69 69 72 73 67 60 60 61 60 60 60 58 57 58 58 55 52 50 49 49 50 51 50 49 49 49 49 51 54 56 59 62 65 67 68 68 68 66 65 64 64 64 65 65 65 65 65 65 66 67 67 67 68 68 69 69 70 70 71 73 75 77 78 80 82 83 84 86 87 88 87 86 82 76 68 59 51 47 48 52
61 60 59 60 61 64 66 67 68 70 68 66 67 67 64 63 61 59 57 57 55 53 53 52 52 53 55 55 53 52 52 53 55 56 58 61 63 66 68 69 69 68 65 64 64 64 65 66 66 66 66 65 64 64 65 65 66 67 67 67 67 68 68 69 71 72 74 76 78 79 81 82 84 85 86 86 85 82 78 71 63 55 49 47 48 51
62 59 59 61 61 63 64 63 64 67 67 64 62 61 62 64 62 57 54 54 54 55 56 56 57 58 59 58 56 55 57 58 59 59 62 66 68 68 69 69 67 65 63 63 64 64 65 67 67 67 66 64 63 63 64 64 65 65 66 66 66 67 67 68 70 72 74 75 77 78 80 82 83 84 84 84 82 78 73 67 59 51 46 46 48 49
64 61 63 66 65 66 65 62 62 64 62 57 55 56 59 59 57 55 55 57 59 62 62 62 62 61 59 58 59 61 62 62 62 63 67 69 69 69 69 67 65 63 63 63 64 65 66 67 67 67 65 63 62 62 62 63 64 64 64 64 65 65 66 67 69 71 73 74 76 77 79 80 82 82 82 80 77 73 69 63 57 50 44 44 46 46
69 65 69 70 67 68 67 61 59 61 59 57 59 59 57 56 56 58 63 67 69 70 68 66 64 62 61 62 65 67 66 64 64 68 70 70 69 67 66 64 63 63 62 63 65 66 67 67 68 66 63 61 61 61 61 62 62 62 62 63 63 64 65 67 68 70 71 73 75 76 78 79 80 80 78 74 70 66 63 60 55 49 44 43 44 42
79 75 79 79 73 72 70 63 62 64 61 59 62 60 56 58 62 68 73 75 75 74 70 67 66 64 64 66 67 67 66 66 68 71 71 69 67 65 62 62 63 63 63 64 66 67 67 68 67 64 61 59 59 59 60 60 60 60 61 61 62 63 64 66 67 68 70 72 74 75 77 79 79 77 74 69 64 61 59 56 51 48 45 44 43 38
91 89 90 88 81 78 76 71 69 68 62 58 60 58 57 64 73 78 79 78 76 74 71 68 67 66 66 67 68 67 68 70 71 72 70 67 64 62 61 63 64 63 64 66 68 68 68 67 65 61 58 58 58 58 58 58 58 59 59 60 61 62 63 64 65 67 69 71 73 75 76 77 77 74 70 64 59 57 58 56 50 45 44 45 45 39
99 97 96 94 91 88 82 72 67 66 63 59 58 60 65 75 81 81 79 77 75 73 71 71 70 69 67 68 68 69 71 72 72 70 67 64 61 61 63 65 65 64 65 68 68 68 67 66 62 58 56 56 56 56 56 56 56 57 58 58 59 60 61 62 64 66 68 70 72 74 75 75 74 71 66 60 54 51 54 56 52 46 44 45 46 43
100 97 96 96 93 87 81 73 67 67 68 63 62 68 80 86 85 80 77 76 75 73 72 72 72 70 68 68 69 70 72 72 70 68 65 63 62 63 66 66 65 65 68 69 68 67 66 63 59 55 54 54 54 54 54 54 55 56 57 57 58 59 59 60 62 64 67 69 71 73 74 73 71 67 62 57 51 47 47 50 50 47 46 46 46 45
Wind_Direction
300 299 298 300 301 301 302 302 303 304 304 304 304 303 303 303 302 302 303 304 305 307 311 310 307 310 314 315 314 311 310 310 309 306 306 304 301 300 299 298 297 297 297 296 296 297 299 300 300 300 301 302 302 303 304 304 305 306 307 309 311 312 313 312 312 311 310 309 308 307 306 304 302 299 297 295 294 294 294 294 295 295 296 295 294 292
298 297 296 297 298 299 300 301 302 302 303 304 304 304 304 303 303 304 304 304 304 306 309 309 306 308 313 315 316 312 310 310 307 305 305 304 302 301 299 299 298 297 297 297 297 298 300 301 302 302 303 303 303 304 305 306 306 306 307 309 311 311 311 311 311 311 310 310 310 309 307 305 302 300 298 296 295 295 295 296 297 297 297 296 294 293
296 295 293 295 297 298 299 300 300 300 301 303 304 304 304 303 304 305 304 303 304 305 307 307 305 307 310 314 316 313 311 310 306 304 306 305 303 302 301 300 299 299 298 297 298 300 303 303 303 303 303 303 304 305 306 306 306 307 308 310 310 311 311 310 311 311 312 311 311 309 307 305 303 301 299 297 296 297 297 298 299 300 299 298 296 295
294 293 293 294 295 297 297 298 298 298 299 301 303 303 303 304 304 305 305 303 303 304 306 307 306 307 309 313 316 313 314 313 307 306 307 306 305 304 303 301 300 300 299 298 299 303 305 304 304 303 303 303 305 306 306 306 306 307 309 310 311 311 310 310 311 312 312 312 310 308 306 304 303 301 300 299 299 300 301 302 303 302 301 299 297 297
292 293 293 293 294 296 296 296 296 296 298 300 302 302 302 303 304 305 305 304 304 304 306 308 308 307 307 311 316 315 316 315 309 308 308 306 305 304 302 301 300 300 298 298 301 305 305 304 303 302 303 304 305 306 306 307 307 308 309 310 311 311 310 311 312 312 312 311 310 308 306 304 303 302 300 300 302 303 305 305 305 303 300 298 298 298
293 293 292 293 295 295 295 295 294 294 296 298 299 300 301 302 303 304 305 305 305 305 306 309 310 308 307 312 319 318 318 316 312 311 308 306 305 303 302 302 301 299 298 299 302 305 304 303 302 302 303 304 305 306 307 308 309 309 310 311 311 311 310 311 311 312 312 310 309 308 306 305 303 302 301 301 303 304 305 306 305 302 300 299 299 300
294 292 291 293 294 294 293 292 292 293 295 297 298 299 299 301 301 302 304 304 305 306 307 310 311 307 306 313 318 319 319 316 314 313 308 306 304 303 304 303 301 298 297 299 302 303 303 302 301 302 303 304 306 307 308 310 310 310 311 312 311 311 310 311 311 311 311 310 309 308 306 305 304 303 302 303 304 305 306 306 305 303 301 301 301 302
293 290 291 291 292 293 292 290 290 292 294 295 297 297 298 299 299 301 302 302 304 305 306 311 309 303 306 312 316 320 319 315 315 314 307 304 303 304 304 302 298 296 297 299 301 302 302 301 301 303 304 306 307 309 310 312 312 312 312 312 311 310 310 310 311 311 310 310 308 307 306 305 305 304 304 305 306 307 308 307 306 303 302 302 303 304
291 290 291 291 291 292 290 289 290 291 292 294 296 296 297 297 298 300 300 301 303 303 307 312 306 301 305 309 314 321 318 313 317 316 307 303 302 304 303 299 297 297 299 300 301 301 302 302 303 304 306 308 309 311 312 313 313 313 313 312 311 310 309 310 311 310 310 309 308 307 306 306 305 305 306 307 308 309 309 308 306 304 303 303 304 305
290 290 290 291 292 292 290 290 290 290 292 293 294 295 296 296 297 298 298 300 301 302 308 311 304 302 303 305 315 321 315 312 316 315 308 304 303 303 300 297 296 299 301 302 302 303 303 304 305 306 307 309 311 311 313 314 313 313 312 311 311 310 309 310 310 310 310 308 308 307 307 307 306 306 307 308 309 309 309 308 307 305 304 304 305 306
289 290 291 292 292 292 291 290 290 290 291 292 293 294 295 295 296 296 297 299 300 302 308 308 303 302 301 304 316 317 312 312 315 313 309 305 302 300 297 296 297 301 304 305 304 305 305 305 306 307 309 311 311 312 313 313 313 312 311 311 311 309 309 310 310 310 309 308 308 307 307 307 307 307 308 308 309 309 309 308 307 306 305 305 306 306
289 291 291 291 292 292 291 290 290 291 291 292 292 293 294 294 294 295 296 298 299 302 306 305 303 301 299 306 314 312 310 313 314 313 311 305 300 298 297 297 298 302 305 306 307 307 306 306 307 308 310 311 311 311 312 313 312 311 311 312 311 309 309 310 310 310 309 308 308 307 307 307 308 308 308 309 309 310 309 309 308 307 306 306 307 307
289 290 291 291 291 291 290 290 290 290 290 290 291 293 293 293 295 295 295 297 299 302 304 303 303 301 301 307 311 309 310 313 314 314 311 304 298 297 298 298 299 301 303 306 308 308 308 308 309 310 311 310 310 311 312 312 311 311 312 312 311 310 309 309 310 309 309 308 308 307 307 308 308 308 308 309 310 310 310 310 309 307 307 308 308 308
289 289 289 290 290 290 290 290 290 289 290 290 291 292 292 294 296 295 296 298 299 302 303 302 302 302 304 307 307 307 310 314 315 314 310 304 298 297 299 299 299 301 304 307 309 309 309 310 310 311 310 309 309 310 311 311 311 312 312 312 311 310 309 309 309 309 308 308 308 307 307 307 308 308 309 310 311 311 311 310 309 309 309 309 310 309
290 289 290 290 289 288 288 288 288 288 288 289 290 290 291 293 294 294 296 297 298 300 300 301 302 303 304 304 303 306 311 314 315 313 309 302 297 297 299 298 300 302 305 308 310 310 311 311 311 311 309 308 309 310 311 311 311 313 313 312 310 309 309 309 309 309 309 308 308 307 307 307 308 308 309 311 312 312 311 311 310 310 311 311 311 311
288 288 290 289 288 288 288 287 287 287 287 289 289 289 291 292 292 293 295 296 296 297 298 300 302 303 303 301 302 307 311 314 316 312 306 300 298 298 298 299 301 304 307 309 311 312 312 311 311 309 307 307 309 310 310 311 312 313 312 311 310 309 309 309 309 309 309 308 307 307 307 307 308 309 310 312 313 313 312 311 312 312 312 312 312 312
286 287 288 287 287 287 287 287 287 287 288 289 290 290 291 291 292 294 295 295 295 295 297 301 302 302 301 299 303 308 311 315 315 309 303 301 299 299 299 300 303 306 308 310 312 312 312 311 310 307 306 307 308 309 310 311 312 313 312 310 309 309 309 309 309 309 308 307 307 307 307 308 309 310 312 313 313 313 312 313 313 313 313 313 313 313
284 284 285 285 286 286 287 287 286 287 289 290 290 290 290 291 293 295 295 295 295 295 298 301 302 301 300 301 305 308 311 315 313 306 303 301 300 300 300 302 305 307 309 311 312 312 311 310 308 305 306 307 308 308 310 311 312 312 311 310 309 309 309 308 308 308 307 307 307 307 308 308 310 311 312 313 313 313 313 313 313 313 314 314 314 313
283 282 282 282 284 285 286 286 287 290 291 290 288 288 290 293 294 294 295 296 295 296 298 300 300 299 300 304 307 309 313 314 309 305 303 300 299 300 300 302 305 307 309 311 311 311 310 308 305 304 306 306 307 308 310 312 312 311 310 309 309 309 308 307 307 307 307 307 307 308 308 309 310 312 313 314 314 314 314 314 314 314 314 314 314 313
282 282 281 282 283 283 284 286 289 291 289 287 287 289 292 294 294 294 294 294 295 296 297 298 297 297 300 305 307 310 312 309 306 304 301 299 299 299 300 302 304 305 308 310 310 310 308 305 303 304 305 305 306 308 311 312 312 310 309 309 309 308 307 306 306 307 307 307 308 308 309 310 311 313 314 314 314 314 314 314 314 314 315 315 314 313
282 281 283 284 283 283 286 289 290 288 286 286 288 291 293 293 293 293 292 293 295 296 296 296 295 297 303 307 308 309 307 304 304 302 299 298 298 297 299 301 302 305 308 309 309 309 306 303 302 303 303 304 306 309 312 312 311 309 308 308 308 307 306 306 306 307 308 308 309 309 310 311 312 313 314 314 314 314 314 314 314 315 315 315 315 314
283 284 286 286 285 287 290 290 289 287 286 287 289 292 293 292 292 291 291 293 294 294 295 294 293 298 307 309 308 306 302 302 302 300 298 298 297 297 299 300 302 305 307 308 308 307 303 301 301 301 302 304 308 311 312 311 310 309 308 308 307 306 305 305 306 307 308 309 309 310 311 312 313 313 313 314 314 315 315 315 314 315 315 315 315 314
288 288 288 288 289 290 290 289 288 288 288 289 291 293 292 290 290 291 291 292 292 292 292 291 293 300 310 310 307 303 299 300 302 300 298 296 296 296 298 299 302 305 305 307 306 303 300 299 299 301 302 306 309 312 311 310 309 308 308 307 306 305 304 304 306 307 309 310 310 311 311 312 313 313 313 314 315 315 314 314 315 315 315 315 315 315
288 287 288 289 289 288 288 288 288 288 289 291 292 291 290 290 291 291 290 291 291 291 291 291 294 301 310 310 304 299 298 301 302 299 296 295 295 296 297 299 302 303 304 305 303 300 297 298 299 300 303 308 311 311 310 310 309 308 307 306 305 304 304 304 306 308 309 311 311 311 312 312 312 313 313 314 314 314 314 314 315 315 316 316 316 315
284 284 286 286 286 286 286 287 287 289 290 290 289 289 290 291 291 290 290 290 290 291 291 292 295 302 310 308 301 298 301 303 302 298 295 294 294 294 296 299 301 301 303 302 299 296 296 297 298 301 305 309 311 310 310 309 308 307 307 306 305 304 303 304 306 308 310 311 312 312 312 312 313 313 314 314 314 315 315 315 316 316 316 316 316 316
282 283 284 284 284 284 285 287 288 288 288 287 288 290 290 291 290 290 289 287 288 292 293 293 296 302 307 302 297 300 303 303 300 296 294 294 294 295 297 298 299 300 301 299 296 294 295 296 298 302 307 310 310 310 309 309 308 307 306 305 304 303 303 304 306 309 310 312 312 312 312 312 313 314 314 314 314 315 315 315 316 316 316 317 316 317
281 281 281 281 281 282 284 286 286 286 286 287 289 289 289 290 290 289 287 287 291 294 292 293 298 302 301 297 297 301 302 299 297 296 295 295 295 296 297 296 298 299 298 295 293 293 294 296 299 304 308 310 310 310 309 308 308 307 306 305 304 303 304 305 307 309 311 312 312 312 312 313 313 314 314 314 314 315 316 316 316 317 317 317 317 317
278 278 279 280 280 282 284 284 284 284 285 286 287 288 289 290 289 287 287 290 293 292 291 296 300 297 296 297 299 301 299 295 295 296 296 296 296 295 295 295 297 297 295 292 291 292 294 297 302 306 308 309 310 309 309 308 308 307 305 304 303 303 305 306 308 310 311 312 312 312 313 313 313 314 314 314 315 315 316 316 317 317 317 318 318 318
276 277 281 281 281 283 285 285 284 284 285 285 286 289 291 289 288 287 289 292 293 291 292 296 295 291 294 298 300 299 296 293 295 296 296 295 294 293 293 294 295 294 291 290 290 292 295 299 304 307 309 310 310 309 309 308 307 306 305 304 304 304 306 307 309 311 312 312 312 312 313 313 313 314 314 314 315 316 317 317 317 318 318 319 319 318
277 281 285 284 282 285 288 289 287 285 285 286 288 291 292 289 288 291 294 295 294 292 292 293 290 289 295 299 299 297 294 294 295 295 294 293 292 291 292 293 293 291 289 288 290 293 297 302 306 308 310 311 310 309 308 307 306 305 304 304 304 305 307 308 310 311 311 312 312 312 313 313 313 314 314 315 316 317 317 318 318 318 320 320 319 318
281 284 287 285 285 287 291 292 290 287 287 287 289 292 294 292 292 295 296 295 292 290 291 291 290 291 297 300 298 296 294 293 293 292 291 291 290 290 291 291 290 288 286 288 292 296 301 304 307 309 310 310 310 308 307 306 305 304 304 304 305 306 308 309 310 311 311 312 312 312 313 313 313 314 315 316 317 318 318 318 319 320 321 320 319 319
283 285 287 287 287 289 290 290 289 288 287 286 290 296 299 297 294 292 291 290 289 290 292 292 291 294 300 300 296 295 293 291 290 290 289 289 288 289 289 288 286 285 287 291 296 300 303 306 308 310 310 309 308 307 306 305 304 304 304 305 306 307 308 309 310 310 311 312 312 312 313 313 314 315 315 316 317 318 319 319 320 321 321 320 320 319
283 285 287 287 287 289 289 288 287 286 284 286 295 302 300 292 288 289 288 288 289 291 292 292 293 297 301 299 295 293 291 290 291 290 288 288 288 287 287 285 284 286 291 295 299 302 305 308 309 309 308 307 307 306 305 304 304 304 305 305 306 307 308 309 309 310 311 311 312 312 313 314 315 315 316 317 318 319 320 320 321 322 321 320 320 319
283 284 285 286 286 287 287 287 285 282 282 291 300 300 291 288 290 290 288 286 289 291 291 292 294 297 299 296 293 292 291 292 292 290 288 287 286 285 284 284 285 290 294 298 301 304 306 308 308 307 306 305 305 304 304 304 304 304 305 305 306 307 307 308 309 310 311 312 312 313 313 314 315 316 317 318 319 319 320 321 322 322 321 321 321 318
283 283 284 285 285 285 285 284 281 281 287 296 297 292 290 292 293 289 286 286 289 290 290 291 294 296 296 292 290 291 293 294 293 291 289 287 285 284 283 284 288 292 296 299 302 304 306 307 306 305 304 304 304 304 303 303 304 304 305 305 306 307 307 308 309 311 311 312 312 313 314 315 316 316 317 318 319 320 321 322 323 322 321 322 320 316
282 283 283 283 282 282 283 281 281 284 289 293 293 294 297 296 291 286 285 286 289 289 289 290 293 293 292 291 291 293 294 294 294 293 290 287 285 284 283 285 290 294 297 300 303 305 306 305 304 302 302 303 303 303 303 303 303 304 304 305 306 307 308 309 310 311 312 312 313 313 314 315 316 317 318 319 320 321 322 323 323 322 322 323 320 315
280 281 281 281 281 281 282 281 282 284 286 289 295 298 296 291 288 286 284 285 288 289 288 288 289 290 291 292 293 294 293 293 294 293 289 286 286 284 283 287 291 295 299 302 305 306 305 303 302 301 302 303 303 302 302 302 303 303 304 305 306 307 308 309 310 311 311 312 313 314 315 316 317 318 319 319 321 322 323 324 323 323 324 323 319 316
279 279 281 280 279 280 280 280 280 281 283 289 294 291 286 285 286 284 281 284 290 289 285 285 287 290 292 293 294 294 294 294 295 292 287 285 285 283 285 289 294 298 302 305 307 306 304 302 302 301 302 302 302 301 301 302 302 303 304 305 306 307 308 309 310 311 311 312 314 314 315 316 317 318 319 320 322 323 324 324 324 324 325 323 319 319
277 279 280 277 275 276 277 278 279 278 281 288 291 288 285 284 283 281 279 283 289 286 282 285 288 291 294 295 297 298 296 295 294 290 285 285 284 284 289 294 299 302 306 308 308 306 304 302 301 301 301 302 301 301 300 301 302 303 304 305 306 307 308 309 310 311 312 313 314 315 316 317 318 319 320 322 323 324 325 325 325 325 326 323 321 323
275 277 276 273 272 274 274 275 277 278 281 286 288 288 287 283 280 278 278 284 288 282 281 286 288 289 292 295 299 302 299 296 294 290 287 286 286 289 294 299 304 307 309 309 308 306 304 303 301 300 301 301 300 300 300 301 302 303 304 305 306 307 308 309 310 311 312 314 314 315 316 317 319 320 322 323 324 325 326 326 326 327 326 323 323 325
273 274 273 272 273 273 273 274 276 277 282 287 288 288 284 278 275 277 281 287 287 283 283 286 285 286 290 294 299 302 299 296 293 289 286 286 288 293 299 304 307 310 310 309 308 306 304 302 301 300 300 300 299 299 300 301 302 303 304 306 307 307 308 309 310 312 313 314 315 316 317 318 320 321 323 324 326 326 327 326 326 327 326 324 325 327
271 272 272 272 272 272 273 274 275 277 283 288 287 283 278 274 277 282 285 285 284 284 285 284 284 287 292 296 301 302 298 294 290 286 286 288 292 298 303 307 309 310 310 309 307 304 303 302 301 300 300 299 299 299 300 301 303 304 305 306 307 307 308 309 310 312 313 315 316 317 318 319 321 322 324 325 327 327 327 327 327 327 326 325 326 327
266 268 270 270 270 270 271 271 272 277 284 284 280 278 278 279 283 285 283 282 283 284 283 283 287 292 298 302 304 301 297 293 289 288 290 293 298 303 306 309 309 309 309 307 304 302 302 301 300 300 299 299 298 299 300 302 303 304 305 305 306 307 308 309 311 313 314 315 316 317 318 320 322 323 325 326 327 328 328 327 327 326 324 324 326 327
263 263 268 272 273 271 270 270 272 277 280 279 278 280 282 282 282 281 282 285 285 283 283 287 293 297 302 304 304 301 298 294 290 291 295 299 303 307 308 308 308 307 307 304 301 301 301 300 300 300 299 298 298 299 301 302 303 304 304 305 306 307 308 310 312 313 314 316 317 318 319 321 323 325 326 327 328 328 328 328 328 325 323 324 326 327
267 264 266 270 271 270 269 269 272 275 277 279 282 283 282 280 279 279 283 289 290 290 291 293 296 300 302 302 302 301 300 296 292 293 298 303 306 307 307 306 306 306 304 302 300 301 300 299 300 300 298 298 298 300 301 302 302 303 304 305 306 307 309 310 312 313 315 316 317 319 321 323 325 326 328 328 328 328 328 328 327 324 322 323 325 327
271 271 269 267 268 270 269 268 269 273 276 279 283 283 281 280 280 281 287 293 296 297 298 296 297 300 301 301 301 302 300 296 293 295 300 304 305 305 304 304 304 304 302 300 301 301 299 298 299 298 297 297 298 300 301 301 302 303 303 304 306 307 309 311 312 313 315 316 318 320 322 324 326 328 329 328 328 328 328 327 326 323 322 322 324 328
273 276 276 273 271 272 271 269 269 272 274 276 279 280 279 280 282 287 293 296 297 297 298 295 295 299 301 300 300 300 299 296 294 296 301 303 303 303 302 302 303 302 301 300 301 300 298 297 298 297 296 297 299 300 300 301 302 302 303 304 306 308 309 311 312 314 315 317 319 321 323 325 328 329 329 328 328 327 326 327 326 322 320 321 323 326
274 276 277 277 277 276 273 270 270 272 273 276 277 277 278 283 289 294 296 297 297 297 296 292 291 296 300 300 298 298 296 294 295 298 301 302 302 300 299 301 303 301 300 300 300 299 297 297 296 295 295 297 298 299 299 300 301 302 303 305 307 308 310 311 313 314 316 318 320 322 325 327 329 331 330 329 327 326 325 326 325 321 320 322 324 326
275 275 275 277 279 277 276 276 275 272 272 274 274 275 281 291 295 296 297 297 297 296 293 289 289 295 298 297 296 295 293 293 295 299 301 301 299 296 297 301 302 300 299 300 299 297 296 295 294 294 295 297 297 298 299 300 301 302 304 305 307 309 310 312 313 316 318 320 322 324 327 329 331 332 331 330 328 326 326 327 326 322 320 324 327 328
275 274 275 277 278 278 280 282 279 272 269 269 269 274 285 293 295 293 294 295 294 292 289 287 289 293 294 292 291 291 290 292 296 299 300 299 295 293 297 301 301 299 299 298 297 296 295 293 293 293 295 296 297 298 299 300 301 302 304 306 308 309 311 313 315 317 319 321 324 326 329 331 332 332 331 330 328 327 327 328 328 325 322 324 327 329
276 275 275 277 279 280 281 281 277 273 272 271 272 278 287 292 292 290 290 291 290 289 287 287 290 292 290 288 288 288 289 292 296 298 298 295 290 292 297 301 300 298 297 296 295 294 293 292 292 293 294 295 296 297 299 300 301 303 304 306 308 309 311 314 317 319 321 324 326 328 330 332 333 332 331 330 328 327 327 329 329 327 324 323 326 327
Height
5838 5836 5834 5832 5831 5829 5827 5826 5824 5823 5822 5820 5819 5818 5817 5815 5814 5813 5809 5806 5803 5800 5802 5799 5793 5795 5798 5797 5794 5789 5786 5785 5783 5780 5778 5777 5774 5772 5770 5767 5765 5763 5761 5759 5757 5756 5755 5754 5752 5750 5747 5745 5743 5741 5739 5737 5734 5731 5728 5725 5722 5718 5714 5711 5707 5704 5701 5698 5695 5692 5688 5683 5678 5672 5666 5660 5654 5650 5646 5641 5638 5634 5631 5627 5624 5621
5835 5833 5831 5829 5828 5826 5824 5822 5821 5819 5818 5817 5815 5813 5813 5810 5808 5809 5806 5802 5800 5796 5797 5795 5788 5789 5793 5793 5791 5787 5783 5782 5779 5776 5774 5772 5770 5767 5765 5762 5760 5758 5755 5753 5751 5750 5750 5748 5746 5744 5741 5739 5737 5735 5733 5730 5727 5724 5721 5718 5715 5711 5707 5703 5699 5696 5693 5690 5687 5683 5679 5674 5669 5664 5659 5653 5647 5642 5638 5633 5628 5625 5621 5617 5614 5611
5831 5829 5827 5826 5824 5822 5820 5819 5817 5815 5814 5813 5811 5809 5808 5806 5803 5803 5802 5798 5796 5793 5792 5790 5784 5783 5788 5789 5788 5784 5780 5779 5774 5772 5770 5768 5765 5762 5759 5757 5754 5752 5750 5747 5745 5745 5744 5742 5740 5738 5736 5734 5731 5729 5726 5723 5720 5717 5714 5711 5707 5703 5699 5695 5691 5688 5685 5681 5677 5673 5669 5665 5660 5655 5649 5644 5638 5634 5629 5623 5618 5614 5610 5607 5603 5599
5828 5826 5823 5822 5821 5819 5817 5815 5813 5811 5811 5809 5808 5805 5803 5802 5798 5796 5796 5793 5792 5789 5787 5785 5778 5776 5781 5785 5785 5780 5777 5774 5769 5767 5766 5762 5760 5757 5754 5751 5749 5747 5744 5742 5740 5740 5738 5736 5734 5732 5730 5727 5725 5722 5719 5716 5713 5710 5706 5703 5699 5695 5691 5687 5683 5679 5676 5672 5668 5664 5659 5654 5650 5645 5639 5634 5629 5623 5618 5613 5607 5602 5599 5596 5593 5589
5824 5822 5820 5818 5817 5815 5813 5811 5809 5806 5806 5806 5804 5801 5798 5797 5794 5791 5789 5786 5785 5785 5783 5780 5772 5767 5772 5779 5781 5776 5773 5769 5764 5762 5761 5757 5755 5751 5749 5746 5744 5742 5739 5736 5735 5734 5733 5730 5728 5725 5723 5721 5718 5715 5713 5709 5706 5703 5699 5695 5691 5687 5682 5679 5674 5671 5667 5664 5660 5655 5650 5645 5639 5634 5628 5624 5619 5614 5608 5602 5598 5594 5590 5587 5583 5579
5820 5818 5815 5814 5812 5811 5809 5807 5805 5802 5801 5802 5801 5798 5794 5792 5790 5787 5784 5780 5777 5777 5779 5778 5768 5758 5760 5770 5774 5771 5768 5763 5758 5758 5755 5752 5749 5745 5743 5741 5738 5736 5733 5731 5730 5729 5727 5724 5721 5719 5716 5714 5711 5708 5705 5702 5699 5695 5691 5687 5683 5678 5674 5670 5666 5662 5659 5655 5651 5647 5642 5637 5632 5627 5620 5615 5611 5607 5602 5596 5590 5585 5581 5577 5573 5569
5816 5813 5811 5810 5808 5806 5805 5803 5800 5797 5796 5797 5797 5794 5790 5788 5785 5783 5781 5776 5772 5770 5772 5775 5768 5752 5749 5760 5768 5766 5763 5758 5753 5753 5750 5746 5743 5740 5737 5735 5732 5729 5727 5726 5725 5723 5720 5717 5715 5712 5709 5707 5704 5701 5697 5694 5691 5687 5683 5679 5674 5670 5665 5661 5657 5654 5650 5646 5642 5637 5632 5627 5622 5618 5613 5607 5601 5597 5593 5588 5582 5576 5571 5566 5562 5558
5811 5808 5807 5806 5804 5802 5801 5798 5796 5793 5791 5791 5792 5789 5786 5784 5781 5779 5776 5773 5769 5764 5765 5772 5767 5750 5743 5751 5760 5761 5758 5753 5750 5748 5745 5741 5738 5735 5733 5729 5726 5723 5722 5721 5719 5717 5714 5711 5708 5705 5702 5699 5696 5693 5689 5686 5683 5679 5675 5670 5666 5662 5657 5653 5649 5645 5641 5636 5632 5627 5622 5617 5610 5605 5601 5596 5591 5585 5581 5578 5573 5568 5563 5556 5551 5546
5805 5803 5802 5801 5799 5798 5796 5793 5791 5789 5787 5786 5786 5783 5782 5779 5776 5775 5771 5769 5766 5758 5759 5767 5762 5748 5740 5744 5753 5756 5752 5747 5746 5744 5739 5736 5733 5730 5727 5723 5720 5718 5717 5716 5713 5710 5707 5704 5701 5698 5695 5692 5688 5684 5681 5678 5675 5671 5667 5662 5657 5653 5649 5645 5640 5636 5631 5626 5622 5617 5611 5606 5599 5593 5589 5585 5580 5575 5571 5567 5562 5558 5553 5548 5542 5536
5799 5798 5797 5795 5794 5793 5790 5788 5786 5784 5782 5781 5780 5778 5776 5773 5771 5769 5766 5764 5761 5753 5755 5761 5754 5744 5736 5738 5748 5751 5745 5742 5741 5739 5735 5731 5728 5724 5721 5717 5714 5712 5711 5709 5706 5703 5700 5697 5694 5690 5687 5683 5680 5676 5673 5669 5667 5663 5659 5655 5650 5645 5641 5636 5631 5626 5621 5616 5611 5606 5600 5594 5589 5583 5578 5574 5570 5565 5561 5557 5553 5548 5543 5538 5533 5527
5794 5793 5792 5790 5789 5787 5785 5782 5781 5779 5777 5776 5774 5772 5770 5767 5765 5763 5760 5759 5755 5748 5752 5752 5747 5741 5731 5732 5743 5744 5739 5737 5736 5734 5730 5726 5722 5718 5714 5710 5708 5706 5705 5702 5699 5696 5693 5689 5686 5682 5679 5676 5672 5668 5665 5662 5659 5655 5652 5647 5642 5637 5632 5627 5622 5617 5612 5606 5600 5595 5589 5583 5577 5572 5567 5563 5559 5555 5551 5547 5543 5538 5534 5529 5523 5517
5789 5787 5787 5786 5784 5782 5779 5777 5775 5774 5772 5770 5768 5766 5764 5760 5759 5757 5755 5754 5749 5744 5746 5744 5740 5735 5726 5728 5736 5734 5732 5732 5730 5728 5725 5720 5715 5711 5707 5704 5701 5700 5698 5695 5692 5689 5685 5682 5679 5675 5671 5668 5664 5660 5657 5654 5652 5648 5644 5640 5634 5629 5623 5618 5613 5608 5602 5596 5590 5584 5578 5572 5566 5561 5557 5553 5549 5545 5540 5536 5532 5528 5523 5519 5514 5506
5784 5783 5781 5780 5780 5777 5774 5771 5770 5768 5766 5765 5763 5761 5758 5753 5752 5750 5748 5747 5743 5740 5740 5736 5733 5728 5721 5725 5728 5725 5725 5725 5723 5721 5718 5713 5708 5703 5700 5697 5694 5693 5691 5688 5685 5681 5678 5674 5671 5667 5664 5660 5657 5653 5650 5647 5644 5641 5636 5632 5626 5620 5615 5609 5604 5599 5593 5586 5580 5574 5568 5562 5557 5552 5546 5542 5538 5534 5529 5524 5521 5516 5511 5508 5503 5497
5777 5778 5777 5775 5774 5772 5769 5767 5764 5762 5761 5759 5758 5756 5751 5748 5745 5742 5741 5739 5736 5735 5731 5726 5725 5721 5718 5719 5718 5717 5719 5718 5716 5714 5710 5705 5699 5696 5693 5689 5687 5686 5684 5681 5677 5674 5671 5667 5664 5660 5657 5653 5649 5646 5643 5640 5637 5633 5628 5623 5618 5611 5606 5601 5595 5590 5584 5577 5570 5564 5559 5553 5548 5543 5537 5532 5527 5523 5519 5513 5508 5504 5499 5494 5490 5485
5769 5770 5771 5770 5768 5766 5764 5762 5759 5757 5755 5754 5753 5750 5746 5744 5739 5735 5736 5733 5729 5729 5725 5719 5717 5715 5714 5713 5710 5712 5714 5712 5710 5707 5702 5696 5691 5689 5686 5682 5680 5679 5676 5673 5670 5666 5663 5660 5656 5653 5649 5646 5642 5639 5636 5632 5629 5625 5620 5614 5609 5603 5597 5592 5587 5581 5574 5568 5561 5555 5550 5544 5538 5533 5528 5522 5517 5512 5507 5503 5498 5493 5487 5482 5477 5472
5763 5763 5765 5762 5760 5759 5757 5756 5754 5751 5749 5749 5747 5743 5741 5739 5733 5730 5731 5728 5723 5721 5719 5715 5711 5710 5709 5705 5705 5707 5707 5705 5704 5699 5693 5687 5684 5682 5678 5674 5673 5671 5669 5665 5662 5659 5655 5652 5649 5645 5642 5638 5635 5632 5628 5625 5621 5616 5612 5607 5601 5595 5589 5584 5578 5572 5566 5559 5553 5547 5541 5535 5529 5523 5518 5513 5507 5501 5496 5491 5486 5482 5476 5470 5464 5459
5758 5758 5758 5754 5752 5752 5749 5747 5746 5744 5744 5743 5740 5737 5734 5732 5728 5724 5722 5721 5717 5712 5712 5711 5704 5702 5702 5698 5699 5701 5698 5698 5696 5689 5683 5678 5676 5675 5669 5666 5665 5663 5660 5657 5654 5651 5648 5645 5641 5638 5634 5631 5627 5624 5620 5617 5613 5609 5604 5599 5593 5587 5581 5575 5569 5563 5557 5551 5545 5539 5532 5526 5520 5514 5508 5503 5498 5492 5486 5481 5475 5470 5466 5459 5452 5446
5752 5752 5753 5749 5744 5744 5741 5738 5737 5738 5738 5736 5733 5730 5727 5724 5722 5718 5713 5711 5708 5701 5702 5705 5699 5693 5693 5692 5693 5693 5691 5690 5686 5678 5675 5671 5668 5666 5661 5658 5657 5655 5652 5650 5647 5644 5640 5637 5634 5630 5627 5623 5620 5616 5613 5609 5605 5601 5596 5591 5585 5579 5573 5567 5562 5556 5550 5544 5537 5530 5523 5516 5510 5505 5499 5494 5488 5483 5477 5471 5465 5459 5454 5449 5441 5434
5745 5744 5746 5744 5739 5737 5734 5730 5729 5731 5731 5727 5725 5723 5721 5719 5715 5711 5706 5702 5698 5692 5690 5694 5693 5687 5686 5688 5688 5686 5684 5682 5676 5671 5667 5665 5663 5658 5653 5651 5650 5648 5645 5643 5639 5636 5633 5630 5626 5623 5619 5616 5613 5609 5605 5602 5597 5592 5587 5582 5576 5571 5565 5560 5554 5549 5543 5536 5529 5522 5515 5508 5501 5495 5490 5484 5478 5473 5467 5461 5456 5450 5444 5438 5431 5423
5738 5735 5736 5737 5733 5729 5727 5725 5725 5725 5722 5717 5716 5716 5716 5713 5707 5703 5699 5695 5690 5685 5680 5681 5683 5682 5683 5684 5683 5680 5678 5673 5668 5665 5661 5659 5657 5651 5647 5645 5644 5641 5639 5636 5632 5629 5626 5623 5619 5616 5612 5609 5606 5602 5598 5594 5589 5584 5579 5573 5568 5562 5557 5552 5546 5541 5535 5527 5520 5513 5507 5500 5493 5486 5480 5474 5468 5463 5457 5451 5445 5439 5434 5428 5421 5413
5729 5726 5726 5728 5724 5720 5720 5720 5719 5716 5712 5709 5709 5711 5710 5707 5701 5693 5690 5690 5685 5678 5672 5666 5667 5675 5681 5681 5678 5674 5670 5666 5662 5658 5655 5653 5649 5644 5641 5639 5637 5634 5631 5628 5625 5622 5619 5616 5612 5609 5606 5602 5599 5595 5591 5586 5581 5576 5571 5565 5559 5554 5549 5544 5539 5533 5527 5519 5512 5505 5499 5492 5485 5479 5472 5466 5460 5454 5448 5442 5435 5429 5423 5417 5410 5402
5719 5716 5717 5717 5713 5712 5713 5712 5709 5705 5703 5702 5703 5706 5704 5700 5695 5685 5680 5683 5680 5672 5665 5654 5650 5663 5675 5675 5671 5667 5661 5658 5656 5651 5650 5647 5641 5636 5634 5632 5630 5627 5624 5621 5618 5615 5611 5608 5605 5602 5599 5595 5591 5587 5583 5578 5573 5568 5562 5557 5551 5547 5541 5536 5531 5525 5519 5512 5505 5498 5491 5484 5478 5471 5465 5459 5452 5446 5439 5433 5427 5420 5414 5408 5400 5391
5710 5707 5705 5704 5704 5704 5702 5701 5699 5695 5694 5695 5697 5698 5695 5692 5688 5679 5672 5672 5671 5667 5660 5647 5641 5653 5666 5667 5662 5657 5652 5650 5648 5645 5643 5639 5633 5629 5626 5624 5623 5619 5616 5614 5611 5608 5604 5601 5598 5595 5591 5588 5584 5580 5575 5570 5565 5559 5553 5549 5544 5539 5533 5528 5523 5517 5511 5504 5497 5490 5483 5477 5471 5464 5458 5451 5444 5438 5432 5425 5418 5411 5404 5398 5390 5381
5701 5698 5696 5695 5695 5694 5692 5693 5690 5687 5687 5688 5689 5689 5686 5684 5681 5673 5664 5661 5659 5657 5651 5642 5638 5645 5657 5658 5651 5645 5643 5642 5641 5638 5635 5630 5625 5622 5619 5617 5615 5612 5609 5607 5603 5600 5597 5594 5591 5587 5584 5581 5576 5572 5567 5561 5556 5550 5545 5541 5536 5531 5525 5520 5515 5509 5503 5496 5489 5482 5475 5469 5464 5457 5450 5443 5437 5431 5424 5417 5410 5402 5394 5387 5379 5371
5692 5690 5689 5687 5685 5684 5684 5685 5683 5681 5681 5679 5680 5680 5677 5677 5674 5663 5657 5652 5647 5646 5644 5636 5629 5635 5649 5648 5638 5634 5633 5633 5633 5629 5625 5622 5617 5614 5612 5610 5607 5604 5602 5600 5596 5593 5590 5586 5584 5580 5577 5574 5569 5564 5559 5553 5548 5543 5538 5533 5528 5523 5518 5512 5507 5500 5494 5488 5481 5474 5468 5461 5455 5449 5442 5436 5429 5423 5416 5408 5401 5393 5385 5377 5369 5361
5684 5683 5682 5678 5675 5675 5676 5678 5676 5674 5672 5669 5671 5673 5670 5669 5666 5656 5649 5643 5637 5638 5638 5630 5620 5624 5639 5638 5628 5626 5625 5623 5623 5619 5614 5613 5609 5606 5606 5602 5600 5598 5595 5592 5589 5586 5583 5579 5576 5573 5570 5566 5561 5555 5550 5545 5541 5535 5530 5525 5520 5515 5510 5504 5498 5492 5486 5480 5473 5467 5460 5453 5446 5440 5433 5427 5421 5415 5407 5400 5392 5384 5376 5367 5359 5351
5674 5673 5674 5670 5665 5666 5669 5672 5668 5663 5663 5662 5662 5664 5662 5660 5658 5649 5638 5633 5633 5630 5625 5624 5620 5615 5623 5628 5622 5620 5618 5614 5613 5610 5606 5604 5601 5599 5598 5594 5592 5591 5588 5585 5582 5578 5575 5572 5569 5567 5563 5558 5553 5548 5543 5538 5533 5527 5522 5517 5512 5507 5502 5496 5490 5484 5478 5472 5465 5458 5452 5445 5438 5431 5425 5419 5413 5406 5399 5391 5382 5374 5367 5358 5349 5340
5662 5660 5664 5662 5657 5658 5662 5664 5659 5653 5654 5656 5654 5655 5655 5652 5650 5640 5628 5628 5632 5621 5609 5618 5623 5609 5606 5617 5618 5612 5609 5606 5604 5602 5598 5596 5594 5592 5589 5586 5585 5583 5580 5578 5574 5571 5568 5565 5562 5559 5555 5551 5545 5540 5535 5530 5525 5520 5514 5509 5504 5499 5493 5488 5482 5476 5470 5463 5457 5450 5444 5437 5430 5424 5417 5411 5405 5398 5390 5382 5373 5365 5357 5348 5339 5329
5650 5649 5657 5654 5648 5650 5653 5654 5651 5645 5644 5647 5646 5647 5647 5641 5638 5631 5623 5625 5627 5611 5600 5610 5614 5602 5599 5608 5610 5604 5599 5596 5595 5593 5589 5587 5586 5583 5581 5580 5578 5576 5573 5570 5567 5564 5561 5558 5556 5552 5547 5543 5538 5532 5527 5522 5517 5512 5506 5501 5496 5490 5485 5479 5474 5468 5461 5455 5449 5442 5436 5429 5422 5415 5409 5403 5397 5389 5381 5373 5364 5356 5347 5337 5327 5317
5640 5641 5649 5645 5637 5641 5645 5644 5641 5636 5633 5634 5636 5640 5638 5630 5626 5623 5619 5619 5616 5603 5598 5601 5598 5595 5600 5603 5600 5596 5591 5586 5585 5583 5580 5579 5578 5574 5573 5573 5571 5568 5566 5562 5559 5556 5554 5551 5549 5545 5540 5535 5530 5524 5519 5514 5509 5503 5498 5492 5487 5482 5476 5470 5465 5459 5454 5448 5441 5435 5428 5422 5415 5408 5401 5395 5388 5380 5372 5364 5355 5346 5337 5327 5317 5306
5632 5633 5639 5635 5626 5632 5639 5634 5628 5626 5623 5621 5626 5632 5631 5623 5619 5617 5613 5611 5605 5596 5594 5594 5585 5586 5598 5599 5591 5588 5584 5579 5576 5574 5572 5571 5569 5567 5566 5565 5563 5561 5557 5554 5552 5549 5547 5545 5541 5536 5532 5527 5522 5516 5510 5505 5500 5495 5489 5484 5479 5474 5468 5462 5457 5452 5446 5440 5434 5428 5422 5415 5408 5400 5392 5386 5379 5372 5363 5355 5345 5336 5327 5317 5306 5295
5624 5623 5628 5625 5614 5620 5631 5624 5616 5617 5613 5609 5617 5625 5625 5619 5613 5610 5607 5603 5598 5591 5588 5585 5577 5578 5590 5591 5584 5580 5577 5572 5569 5566 5564 5563 5561 5559 5559 5557 5555 5552 5550 5547 5545 5543 5540 5537 5533 5528 5524 5519 5513 5508 5503 5497 5492 5487 5482 5477 5471 5466 5460 5455 5450 5444 5438 5433 5427 5421 5415 5408 5401 5393 5385 5377 5371 5363 5354 5346 5336 5326 5317 5306 5296 5286
5618 5615 5618 5615 5604 5609 5619 5613 5607 5608 5601 5600 5612 5619 5616 5610 5604 5601 5600 5597 5593 5586 5579 5575 5572 5574 5580 5578 5573 5572 5568 5564 5563 5561 5558 5556 5554 5552 5551 5549 5546 5544 5542 5540 5538 5535 5532 5529 5525 5520 5515 5510 5504 5499 5494 5489 5484 5479 5475 5470 5464 5459 5453 5448 5443 5437 5431 5426 5420 5414 5407 5400 5393 5385 5377 5370 5362 5354 5346 5337 5327 5317 5307 5297 5286 5276
5612 5609 5607 5605 5598 5597 5604 5603 5597 5594 5590 5596 5609 5609 5603 5601 5597 5593 5591 5590 5589 5582 5572 5566 5566 5570 5572 5567 5563 5561 5559 5558 5557 5555 5552 5549 5547 5546 5543 5541 5539 5537 5535 5533 5530 5528 5525 5521 5517 5512 5506 5501 5496 5491 5486 5481 5476 5472 5468 5463 5457 5452 5447 5441 5435 5430 5424 5418 5412 5406 5400 5393 5386 5378 5370 5362 5354 5346 5337 5328 5319 5308 5297 5288 5277 5268
5605 5602 5598 5597 5592 5587 5591 5593 5584 5578 5585 5596 5599 5596 5593 5592 5589 5584 5580 5582 5584 5578 5568 5562 5561 5564 5564 5559 5554 5552 5551 5551 5550 5548 5546 5543 5541 5539 5536 5534 5533 5530 5528 5526 5523 5520 5517 5512 5508 5503 5497 5492 5487 5483 5478 5473 5469 5464 5460 5456 5450 5445 5440 5434 5428 5422 5416 5410 5405 5399 5393 5387 5379 5371 5363 5355 5347 5339 5330 5320 5310 5300 5289 5280 5270 5261
5597 5594 5589 5587 5584 5578 5579 5579 5570 5567 5579 5590 5589 5586 5585 5583 5579 5573 5569 5574 5579 5572 5564 5559 5556 5556 5556 5551 5549 5547 5544 5544 5543 5542 5539 5536 5534 5533 5530 5528 5527 5524 5521 5519 5516 5512 5508 5503 5499 5494 5489 5484 5479 5475 5470 5466 5462 5457 5452 5448 5443 5437 5432 5426 5420 5415 5409 5403 5398 5391 5385 5379 5372 5364 5356 5348 5340 5332 5322 5313 5303 5291 5282 5273 5263 5255
5589 5585 5582 5578 5574 5571 5568 5566 5562 5560 5567 5581 5586 5583 5577 5573 5571 5564 5557 5564 5574 5568 5558 5554 5551 5549 5548 5545 5543 5541 5538 5536 5537 5536 5532 5529 5527 5526 5524 5522 5520 5517 5515 5512 5508 5504 5499 5495 5490 5485 5480 5476 5471 5467 5463 5459 5455 5450 5445 5440 5435 5430 5424 5419 5413 5408 5402 5396 5391 5384 5378 5371 5365 5358 5350 5342 5333 5325 5315 5305 5294 5283 5273 5265 5257 5250
5580 5576 5575 5569 5564 5565 5561 5555 5555 5551 5554 5572 5581 5576 5571 5566 5563 5557 5547 5552 5568 5563 5550 5546 5546 5543 5542 5539 5537 5535 5532 5530 5531 5529 5524 5521 5521 5519 5517 5516 5514 5511 5508 5504 5499 5495 5491 5486 5482 5477 5473 5468 5464 5459 5455 5451 5447 5443 5438 5433 5428 5423 5417 5412 5407 5402 5396 5390 5384 5377 5371 5364 5357 5350 5343 5335 5326 5316 5307 5297 5285 5275 5266 5257 5250 5245
5571 5568 5569 5560 5554 5558 5554 5546 5546 5541 5546 5565 5571 5565 5563 5558 5554 5549 5539 5544 5559 5555 5541 5540 5540 5536 5534 5532 5530 5528 5525 5523 5523 5521 5517 5515 5515 5513 5511 5509 5506 5503 5499 5495 5491 5487 5482 5478 5474 5469 5465 5461 5456 5452 5448 5444 5440 5436 5431 5426 5421 5416 5411 5406 5401 5395 5389 5384 5377 5370 5364 5358 5350 5342 5335 5327 5318 5308 5298 5288 5277 5267 5259 5251 5245 5240
5562 5561 5559 5551 5547 5551 5546 5538 5535 5533 5542 5559 5561 5555 5554 5549 5545 5540 5532 5536 5547 5542 5535 5535 5532 5528 5528 5525 5522 5521 5517 5515 5515 5513 5511 5510 5508 5506 5504 5502 5498 5494 5490 5485 5481 5478 5474 5470 5466 5461 5457 5453 5449 5445 5441 5437 5433 5429 5424 5419 5414 5409 5405 5399 5394 5389 5383 5377 5371 5364 5357 5350 5343 5335 5327 5319 5310 5300 5289 5279 5269 5260 5253 5246 5241 5236
5553 5552 5548 5543 5541 5542 5538 5531 5525 5525 5539 5552 5550 5546 5545 5538 5533 5533 5528 5529 5533 5529 5528 5529 5524 5521 5521 5517 5515 5514 5510 5508 5508 5506 5505 5504 5501 5499 5497 5493 5489 5485 5481 5477 5473 5470 5466 5462 5458 5454 5450 5446 5442 5438 5434 5430 5426 5422 5417 5412 5407 5402 5398 5393 5388 5383 5377 5370 5364 5357 5349 5342 5335 5328 5320 5311 5302 5293 5281 5270 5261 5254 5248 5243 5238 5233
5544 5542 5537 5535 5534 5532 5529 5524 5515 5517 5537 5547 5538 5534 5535 5527 5524 5527 5524 5521 5520 5519 5519 5519 5515 5514 5513 5510 5509 5507 5504 5502 5501 5499 5498 5496 5493 5492 5489 5485 5481 5477 5472 5469 5465 5461 5458 5454 5451 5447 5443 5439 5434 5430 5427 5423 5419 5414 5409 5405 5400 5396 5391 5387 5381 5376 5370 5364 5357 5350 5343 5335 5328 5320 5312 5304 5295 5286 5276 5265 5256 5248 5243 5239 5235 5230
5534 5530 5525 5526 5527 5523 5519 5516 5509 5512 5531 5539 5527 5521 5524 5522 5520 5520 5515 5511 5512 5511 5509 5509 5508 5507 5504 5502 5502 5499 5497 5496 5494 5491 5490 5487 5485 5484 5480 5476 5473 5468 5465 5461 5457 5454 5451 5447 5443 5439 5435 5432 5427 5423 5420 5416 5411 5407 5403 5398 5394 5389 5384 5380 5375 5369 5364 5358 5351 5344 5336 5329 5321 5313 5305 5297 5289 5279 5270 5260 5252 5245 5239 5236 5232 5228
5520 5521 5518 5518 5520 5515 5508 5506 5508 5512 5520 5524 5519 5516 5517 5516 5515 5512 5506 5505 5505 5503 5502 5502 5501 5499 5497 5495 5494 5492 5491 5489 5486 5483 5481 5478 5476 5474 5470 5468 5464 5460 5457 5453 5448 5446 5443 5439 5436 5432 5427 5424 5421 5416 5412 5408 5404 5400 5396 5391 5387 5383 5378 5373 5368 5363 5357 5351 5345 5338 5330 5322 5314 5306 5298 5290 5281 5273 5264 5256 5249 5242 5237 5233 5229 5225
5510 5515 5512 5508 5506 5504 5500 5501 5506 5509 5509 5511 5514 5515 5511 5508 5508 5504 5500 5499 5499 5496 5495 5495 5493 5492 5490 5488 5486 5485 5483 5481 5478 5475 5473 5470 5468 5466 5462 5459 5456 5452 5448 5444 5441 5438 5435 5431 5428 5423 5419 5417 5413 5409 5405 5401 5397 5393 5389 5385 5381 5376 5372 5367 5362 5356 5351 5345 5339 5332 5325 5317 5308 5299 5290 5281 5273 5266 5259 5252 5245 5240 5235 5231 5227 5222
5503 5506 5502 5496 5494 5492 5493 5498 5502 5502 5502 5505 5508 5508 5504 5501 5499 5497 5493 5492 5492 5490 5488 5487 5485 5484 5482 5479 5478 5477 5474 5472 5470 5467 5465 5463 5460 5457 5454 5450 5447 5443 5440 5436 5433 5430 5427 5424 5420 5415 5412 5409 5405 5402 5399 5394 5390 5386 5382 5378 5374 5370 5366 5361 5355 5350 5345 5339 5333 5327 5320 5312 5303 5293 5284 5274 5266 5258 5252 5246 5241 5236 5232 5228 5224 5221
5494 5496 5490 5487 5486 5482 5484 5494 5498 5494 5494 5500 5500 5498 5498 5494 5490 5488 5486 5484 5483 5482 5481 5479 5477 5475 5474 5472 5470 5468 5466 5464 5462 5459 5457 5455 5451 5448 5446 5442 5439 5436 5431 5428 5426 5422 5419 5416 5412 5408 5405 5401 5398 5395 5391 5387 5384 5380 5376 5372 5368 5364 5359 5354 5349 5344 5339 5333 5327 5321 5314 5307 5299 5289 5279 5268 5260 5253 5247 5242 5237 5232 5228 5225 5221 5218
5485 5487 5479 5476 5478 5476 5478 5489 5492 5485 5486 5493 5491 5488 5489 5487 5482 5480 5478 5475 5474 5473 5472 5471 5468 5466 5466 5464 5461 5459 5457 5455 5453 5451 5448 5446 5443 5440 5437 5434 5430 5427 5423 5420 5418 5414 5411 5408 5404 5400 5397 5394 5391 5388 5384 5381 5378 5374 5370 5366 5362 5357 5353 5348 5343 5338 5333 5327 5321 5314 5308 5301 5293 5285 5275 5264 5255 5248 5242 5239 5235 5228 5224 5221 5217 5213
5473 5473 5469 5469 5469 5468 5472 5483 5485 5478 5479 5485 5481 5477 5480 5479 5473 5470 5469 5467 5466 5464 5462 5461 5459 5458 5457 5455 5453 5451 5449 5446 5444 5442 5439 5437 5435 5431 5429 5426 5422 5418 5415 5413 5410 5406 5403 5399 5396 5393 5390 5387 5384 5381 5378 5375 5371 5367 5364 5360 5355 5351 5347 5341 5337 5332 5326 5321 5315 5308 5301 5294 5286 5279 5271 5262 5253 5244 5235 5232 5231 5226 5221 5217 5213 5208
5458 5461 5464 5462 5457 5457 5467 5480 5480 5469 5468 5475 5473 5468 5470 5469 5463 5460 5461 5460 5457 5455 5454 5452 5450 5449 5448 5446 5444 5442 5439 5437 5435 5433 5430 5428 5425 5422 5420 5417 5413 5410 5408 5405 5402 5399 5395 5391 5388 5386 5382 5379 5377 5374 5371 5368 5364 5361 5358 5354 5349 5346 5341 5336 5331 5326 5320 5315 5309 5302 5296 5289 5281 5274 5267 5260 5254 5246 5236 5227 5223 5221 5218 5213 5210 5206
5446 5453 5455 5450 5446 5450 5460 5471 5471 5459 5455 5463 5467 5461 5458 5458 5454 5451 5453 5452 5448 5446 5445 5443 5442 5441 5438 5436 5434 5431 5429 5427 5426 5423 5421 5419 5416 5414 5411 5408 5405 5402 5399 5397 5394 5391 5387 5384 5381 5378 5375 5373 5370 5367 5364 5361 5358 5355 5351 5348 5344 5340 5335 5330 5326 5320 5315 5309 5303 5296 5290 5284 5276 5269 5262 5256 5251 5247 5241 5232 5223 5218 5214 5210 5208 5205